contact:dominique.lefevre@mio.osupytheas.fr, maurice.libes@osupytheas.fr, didier.mallarino@osupytheas.fr
Project:EMSO http://www.emso-fr.org/EMSO-France
Depth: 2436.0 m
Title:EMSO Ligure Ouest : Data MII capteur MICROCAT
DateTime_Computer,Latitude,Longitude,Temperature,Conductivity,Pressure,DateTime_Instrument
DateTime_Computer,Latitude,Longitude,degC,S m-1,dbar,DateTime_Instrument
2021-04-26T00:02:50Z,42.805,6.029,13.2982,4.59987,2469.419,2021-4-26T02:03:59Z
2021-04-26T00:05:53Z,42.805,6.029,13.2979,4.59987,2469.447,2021-4-26T02:07:02Z
2021-04-26T00:08:56Z,42.805,6.029,13.2979,4.59987,2469.456,2021-4-26T02:10:06Z
2021-04-26T00:11:59Z,42.805,6.029,13.2981,4.59986,2469.433,2021-4-26T02:13:09Z
2021-04-26T00:15:02Z,42.805,6.029,13.2983,4.59985,2469.447,2021-4-26T02:16:12Z
2021-04-26T00:18:05Z,42.805,6.029,13.2979,4.59986,2469.41,2021-4-26T02:19:15Z
2021-04-26T00:21:09Z,42.805,6.029,13.2978,4.59986,2469.41,2021-4-26T02:22:18Z
2021-04-26T00:24:12Z,42.805,6.029,13.2979,4.59986,2469.424,2021-4-26T02:25:21Z
2021-04-26T00:27:15Z,42.805,6.029,13.2978,4.59987,2469.424,2021-4-26T02:28:24Z
2021-04-26T00:30:18Z,42.805,6.029,13.2982,4.59987,2469.4,2021-4-26T02:31:27Z
2021-04-26T00:33:21Z,42.805,6.029,13.2982,4.59988,2469.456,2021-4-26T02:34:31Z
2021-04-26T00:36:24Z,42.805,6.029,13.2982,4.59987,2469.41,2021-4-26T02:37:34Z
2021-04-26T00:39:27Z,42.805,6.029,13.2980,4.59987,2469.41,2021-4-26T02:40:37Z
2021-04-26T00:42:30Z,42.805,6.029,13.2983,4.59985,2469.396,2021-4-26T02:43:40Z
2021-04-26T00:45:34Z,42.805,6.029,13.2979,4.59986,2469.386,2021-4-26T02:46:43Z
2021-04-26T00:48:37Z,42.805,6.029,13.2979,4.59987,2469.386,2021-4-26T02:49:46Z
2021-04-26T00:51:40Z,42.805,6.029,13.2979,4.59985,2469.456,2021-4-26T02:52:49Z
2021-04-26T00:54:43Z,42.805,6.029,13.2977,4.59987,2469.41,2021-4-26T02:55:52Z
2021-04-26T00:57:46Z,42.805,6.029,13.2982,4.59986,2469.41,2021-4-26T02:58:56Z
2021-04-26T01:00:49Z,42.805,6.029,13.2978,4.59986,2469.41,2021-4-26T03:01:59Z
2021-04-26T01:03:52Z,42.805,6.029,13.2981,4.59987,2469.433,2021-4-26T03:05:02Z
2021-04-26T01:06:55Z,42.805,6.029,13.2982,4.59984,2469.41,2021-4-26T03:08:05Z
2021-04-26T01:09:59Z,42.805,6.029,13.2979,4.59987,2469.41,2021-4-26T03:11:08Z
2021-04-26T01:13:02Z,42.805,6.029,13.2978,4.59987,2469.424,2021-4-26T03:14:11Z
2021-04-26T01:16:05Z,42.805,6.029,13.2980,4.59986,2469.386,2021-4-26T03:17:14Z
2021-04-26T01:19:08Z,42.805,6.029,13.2981,4.59988,2469.41,2021-4-26T03:20:17Z
2021-04-26T01:22:11Z,42.805,6.029,13.2981,4.59987,2469.386,2021-4-26T03:23:21Z
2021-04-26T01:25:14Z,42.805,6.029,13.2976,4.59987,2469.41,2021-4-26T03:26:24Z
2021-04-26T01:28:17Z,42.805,6.029,13.2981,4.59989,2469.433,2021-4-26T03:29:27Z
2021-04-26T01:31:20Z,42.805,6.029,13.2980,4.59985,2469.424,2021-4-26T03:32:30Z
2021-04-26T01:34:24Z,42.805,6.029,13.2980,4.59987,2469.433,2021-4-26T03:35:33Z
2021-04-26T01:37:27Z,42.805,6.029,13.2980,4.59985,2469.433,2021-4-26T03:38:36Z
2021-04-26T01:40:30Z,42.805,6.029,13.2977,4.59986,2469.456,2021-4-26T03:41:39Z
2021-04-26T01:43:33Z,42.805,6.029,13.2981,4.59987,2469.447,2021-4-26T03:44:42Z
2021-04-26T01:46:36Z,42.805,6.029,13.2979,4.59986,2469.47,2021-4-26T03:47:46Z
2021-04-26T01:49:39Z,42.805,6.029,13.2984,4.59988,2469.447,2021-4-26T03:50:49Z
2021-04-26T01:52:42Z,42.805,6.029,13.2981,4.59987,2469.447,2021-4-26T03:53:52Z
2021-04-26T01:55:45Z,42.805,6.029,13.2983,4.59986,2469.447,2021-4-26T03:56:55Z
2021-04-26T01:58:49Z,42.805,6.029,13.2981,4.59989,2469.433,2021-4-26T03:59:58Z
2021-04-26T02:01:52Z,42.805,6.029,13.2983,4.59988,2469.47,2021-4-26T04:03:01Z
2021-04-26T02:04:55Z,42.805,6.029,13.2980,4.59986,2469.41,2021-4-26T04:06:04Z
2021-04-26T02:07:58Z,42.805,6.029,13.2978,4.59986,2469.456,2021-4-26T04:09:07Z
2021-04-26T02:11:01Z,42.805,6.029,13.2979,4.59986,2469.494,2021-4-26T04:12:11Z
2021-04-26T02:14:04Z,42.805,6.029,13.2979,4.59986,2469.494,2021-4-26T04:15:14Z
2021-04-26T02:17:07Z,42.805,6.029,13.2979,4.59987,2469.48,2021-4-26T04:18:17Z
2021-04-26T02:20:10Z,42.805,6.029,13.2982,4.59988,2469.48,2021-4-26T04:21:20Z
2021-04-26T02:23:14Z,42.805,6.029,13.2979,4.59988,2469.503,2021-4-26T04:24:23Z
2021-04-26T02:26:17Z,42.805,6.029,13.2982,4.59985,2469.494,2021-4-26T04:27:26Z
2021-04-26T02:29:20Z,42.805,6.029,13.2979,4.59986,2469.503,2021-4-26T04:30:29Z
2021-04-26T02:32:23Z,42.805,6.029,13.2979,4.59988,2469.494,2021-4-26T04:33:32Z
2021-04-26T02:35:26Z,42.805,6.029,13.2980,4.59988,2469.48,2021-4-26T04:36:35Z
2021-04-26T02:38:29Z,42.805,6.029,13.2981,4.59988,2469.503,2021-4-26T04:39:39Z
2021-04-26T02:41:32Z,42.805,6.029,13.2982,4.59986,2469.526,2021-4-26T04:42:42Z
2021-04-26T02:44:35Z,42.805,6.029,13.2983,4.59986,2469.47,2021-4-26T04:45:45Z
2021-04-26T02:47:39Z,42.805,6.029,13.2977,4.59986,2469.494,2021-4-26T04:48:48Z
2021-04-26T02:50:42Z,42.805,6.029,13.2983,4.59987,2469.48,2021-4-26T04:51:51Z
2021-04-26T02:53:45Z,42.805,6.029,13.2981,4.59986,2469.54,2021-4-26T04:54:54Z
2021-04-26T02:56:48Z,42.805,6.029,13.2978,4.59986,2469.503,2021-4-26T04:57:57Z
2021-04-26T02:59:51Z,42.805,6.029,13.2980,4.59986,2469.503,2021-4-26T05:01:01Z
2021-04-26T03:02:54Z,42.805,6.029,13.2980,4.59989,2469.526,2021-4-26T05:04:04Z
2021-04-26T03:05:57Z,42.805,6.029,13.2982,4.59986,2469.503,2021-4-26T05:07:07Z
2021-04-26T03:09:00Z,42.805,6.029,13.2980,4.59986,2469.526,2021-4-26T05:10:10Z
2021-04-26T03:12:04Z,42.805,6.029,13.2981,4.59986,2469.526,2021-4-26T05:13:13Z
2021-04-26T03:15:07Z,42.805,6.029,13.2983,4.59987,2469.55,2021-4-26T05:16:16Z
2021-04-26T03:18:10Z,42.805,6.029,13.2979,4.59988,2469.54,2021-4-26T05:19:19Z
2021-04-26T03:21:13Z,42.805,6.029,13.2979,4.59986,2469.526,2021-4-26T05:22:22Z
2021-04-26T03:24:16Z,42.805,6.029,13.2982,4.59988,2469.55,2021-4-26T05:25:25Z
2021-04-26T03:27:19Z,42.805,6.029,13.2981,4.59988,2469.55,2021-4-26T05:28:29Z
2021-04-26T03:30:22Z,42.805,6.029,13.2982,4.59987,2469.563,2021-4-26T05:31:32Z
2021-04-26T03:33:25Z,42.805,6.029,13.2981,4.59986,2469.563,2021-4-26T05:34:35Z
2021-04-26T03:36:29Z,42.805,6.029,13.2982,4.59986,2469.597,2021-4-26T05:37:38Z
2021-04-26T03:39:32Z,42.805,6.029,13.2980,4.59987,2469.563,2021-4-26T05:40:41Z
2021-04-26T03:42:35Z,42.805,6.029,13.2978,4.59986,2469.597,2021-4-26T05:43:44Z
2021-04-26T03:45:38Z,42.805,6.029,13.2981,4.59989,2469.597,2021-4-26T05:46:47Z
2021-04-26T03:48:41Z,42.805,6.029,13.2983,4.59988,2469.597,2021-4-26T05:49:50Z
2021-04-26T03:51:44Z,42.805,6.029,13.2979,4.59989,2469.573,2021-4-26T05:52:54Z
2021-04-26T03:54:47Z,42.805,6.029,13.2978,4.59988,2469.597,2021-4-26T05:55:57Z
2021-04-26T03:57:50Z,42.805,6.029,13.2983,4.59988,2469.597,2021-4-26T05:59:00Z
2021-04-26T04:00:54Z,42.805,6.029,13.2981,4.59986,2469.587,2021-4-26T06:02:03Z
2021-04-26T04:03:57Z,42.805,6.029,13.2982,4.59987,2469.573,2021-4-26T06:05:06Z
2021-04-26T04:07:00Z,42.805,6.029,13.2983,4.59986,2469.61,2021-4-26T06:08:09Z
2021-04-26T04:10:03Z,42.805,6.029,13.2981,4.59988,2469.587,2021-4-26T06:11:12Z
2021-04-26T04:13:06Z,42.805,6.029,13.2982,4.59986,2469.573,2021-4-26T06:14:15Z
2021-04-26T04:16:09Z,42.805,6.029,13.2983,4.59986,2469.55,2021-4-26T06:17:19Z
2021-04-26T04:19:12Z,42.805,6.029,13.2978,4.59986,2469.62,2021-4-26T06:20:22Z
2021-04-26T04:22:15Z,42.805,6.029,13.2981,4.59988,2469.643,2021-4-26T06:23:25Z
2021-04-26T04:25:18Z,42.805,6.029,13.2981,4.59986,2469.597,2021-4-26T06:26:28Z
2021-04-26T04:28:22Z,42.805,6.029,13.2979,4.59986,2469.597,2021-4-26T06:29:31Z
2021-04-26T04:31:25Z,42.805,6.029,13.2982,4.59986,2469.62,2021-4-26T06:32:34Z
2021-04-26T04:34:28Z,42.805,6.029,13.2980,4.59986,2469.657,2021-4-26T06:35:37Z
2021-04-26T04:37:31Z,42.805,6.029,13.2979,4.59986,2469.69,2021-4-26T06:38:40Z
2021-04-26T04:40:34Z,42.805,6.029,13.2979,4.59986,2469.68,2021-4-26T06:41:44Z
2021-04-26T04:43:37Z,42.805,6.029,13.2978,4.59986,2469.634,2021-4-26T06:44:47Z
2021-04-26T04:46:40Z,42.805,6.029,13.2979,4.59988,2469.667,2021-4-26T06:47:50Z
2021-04-26T04:49:43Z,42.805,6.029,13.2979,4.59986,2469.667,2021-4-26T06:50:53Z
2021-04-26T04:52:47Z,42.805,6.029,13.2978,4.59986,2469.667,2021-4-26T06:53:56Z
2021-04-26T04:55:50Z,42.805,6.029,13.2982,4.59986,2469.704,2021-4-26T06:56:59Z
2021-04-26T04:58:53Z,42.805,6.029,13.2982,4.59986,2469.69,2021-4-26T07:00:02Z
2021-04-26T05:01:56Z,42.805,6.029,13.2982,4.59986,2469.704,2021-4-26T07:03:05Z
2021-04-26T05:04:59Z,42.805,6.029,13.2981,4.59987,2469.69,2021-4-26T07:06:08Z
2021-04-26T05:08:02Z,42.805,6.029,13.2983,4.59987,2469.713,2021-4-26T07:09:12Z
2021-04-26T05:11:05Z,42.805,6.029,13.2975,4.59987,2469.737,2021-4-26T07:12:15Z
2021-04-26T05:14:08Z,42.805,6.029,13.2982,4.59988,2469.713,2021-4-26T07:15:18Z
2021-04-26T05:17:12Z,42.805,6.029,13.2981,4.59987,2469.713,2021-4-26T07:18:21Z
2021-04-26T05:20:15Z,42.805,6.029,13.2980,4.59987,2469.773,2021-4-26T07:21:24Z
2021-04-26T05:23:18Z,42.805,6.029,13.2984,4.59986,2469.737,2021-4-26T07:24:27Z
2021-04-26T05:26:21Z,42.805,6.029,13.2977,4.59985,2469.773,2021-4-26T07:27:30Z
2021-04-26T05:29:24Z,42.805,6.029,13.2980,4.59986,2469.713,2021-4-26T07:30:33Z
2021-04-26T05:32:27Z,42.805,6.029,13.2982,4.59988,2469.76,2021-4-26T07:33:37Z
2021-04-26T05:35:30Z,42.805,6.029,13.2983,4.59988,2469.76,2021-4-26T07:36:40Z
2021-04-26T05:38:33Z,42.805,6.029,13.2982,4.59988,2469.783,2021-4-26T07:39:43Z
2021-04-26T05:41:37Z,42.805,6.029,13.2980,4.59986,2469.806,2021-4-26T07:42:46Z
2021-04-26T05:44:40Z,42.805,6.029,13.2981,4.59987,2469.821,2021-4-26T07:45:49Z
2021-04-26T05:47:43Z,42.805,6.029,13.2979,4.59986,2469.783,2021-4-26T07:48:52Z
2021-04-26T05:50:46Z,42.805,6.029,13.2979,4.59987,2469.773,2021-4-26T07:51:55Z
2021-04-26T05:53:49Z,42.805,6.029,13.2981,4.59987,2469.783,2021-4-26T07:54:58Z
2021-04-26T05:56:52Z,42.805,6.029,13.2983,4.59986,2469.797,2021-4-26T07:58:02Z
2021-04-26T05:59:55Z,42.805,6.029,13.2981,4.59987,2469.76,2021-4-26T08:01:05Z
2021-04-26T06:02:58Z,42.805,6.029,13.2979,4.59987,2469.737,2021-4-26T08:04:08Z
2021-04-26T06:06:01Z,42.805,6.029,13.2979,4.59987,2469.76,2021-4-26T08:07:11Z
2021-04-26T06:09:05Z,42.805,6.029,13.2983,4.59988,2469.783,2021-4-26T08:10:14Z
2021-04-26T06:12:08Z,42.805,6.029,13.2979,4.59988,2469.76,2021-4-26T08:13:17Z
2021-04-26T06:15:11Z,42.805,6.029,13.2982,4.59988,2469.797,2021-4-26T08:16:20Z
2021-04-26T06:18:14Z,42.805,6.029,13.2978,4.59986,2469.773,2021-4-26T08:19:23Z
2021-04-26T06:21:17Z,42.805,6.029,13.2982,4.59986,2469.783,2021-4-26T08:22:27Z
2021-04-26T06:24:20Z,42.805,6.029,13.2979,4.59987,2469.773,2021-4-26T08:25:30Z
2021-04-26T06:27:23Z,42.805,6.029,13.2980,4.59988,2469.783,2021-4-26T08:28:33Z
2021-04-26T06:30:26Z,42.805,6.029,13.2982,4.59986,2469.76,2021-4-26T08:31:36Z
2021-04-26T06:33:30Z,42.805,6.029,13.2975,4.59989,2469.773,2021-4-26T08:34:39Z
2021-04-26T06:36:33Z,42.805,6.029,13.2980,4.59991,2469.783,2021-4-26T08:37:42Z
2021-04-26T06:39:36Z,42.805,6.029,13.2979,4.59988,2469.737,2021-4-26T08:40:45Z
2021-04-26T06:42:39Z,42.805,6.029,13.2981,4.59989,2469.76,2021-4-26T08:43:48Z
2021-04-26T06:45:42Z,42.805,6.029,13.2980,4.59988,2469.797,2021-4-26T08:46:52Z
2021-04-26T06:48:45Z,42.805,6.029,13.2982,4.59986,2469.76,2021-4-26T08:49:55Z
2021-04-26T06:51:48Z,42.805,6.029,13.2982,4.59986,2469.737,2021-4-26T08:52:58Z
2021-04-26T06:54:51Z,42.805,6.029,13.2982,4.59988,2469.76,2021-4-26T08:56:01Z
2021-04-26T06:57:55Z,42.805,6.029,13.2983,4.59990,2469.76,2021-4-26T08:59:04Z
2021-04-26T07:00:58Z,42.805,6.029,13.2982,4.59987,2469.783,2021-4-26T09:02:07Z
2021-04-26T07:04:01Z,42.805,6.029,13.2979,4.59986,2469.737,2021-4-26T09:05:10Z
2021-04-26T07:07:04Z,42.805,6.029,13.2982,4.59988,2469.713,2021-4-26T09:08:13Z
2021-04-26T07:10:07Z,42.805,6.029,13.2982,4.59988,2469.737,2021-4-26T09:11:17Z
2021-04-26T07:13:10Z,42.805,6.029,13.2981,4.59986,2469.783,2021-4-26T09:14:20Z
2021-04-26T07:16:13Z,42.805,6.029,13.2979,4.59989,2469.737,2021-4-26T09:17:23Z
2021-04-26T07:19:16Z,42.805,6.029,13.2982,4.59989,2469.75,2021-4-26T09:20:26Z
2021-04-26T07:22:20Z,42.805,6.029,13.2982,4.59986,2469.76,2021-4-26T09:23:29Z
2021-04-26T07:25:23Z,42.805,6.029,13.2982,4.59987,2469.75,2021-4-26T09:26:32Z
2021-04-26T07:28:26Z,42.805,6.029,13.2982,4.59986,2469.727,2021-4-26T09:29:35Z
2021-04-26T07:31:29Z,42.805,6.029,13.2977,4.59986,2469.737,2021-4-26T09:32:38Z
2021-04-26T07:34:32Z,42.805,6.029,13.2979,4.59986,2469.75,2021-4-26T09:35:42Z
2021-04-26T07:37:35Z,42.805,6.029,13.2983,4.59987,2469.75,2021-4-26T09:38:45Z
2021-04-26T07:40:38Z,42.805,6.029,13.2980,4.59989,2469.737,2021-4-26T09:41:48Z
2021-04-26T07:43:41Z,42.805,6.029,13.2981,4.59987,2469.75,2021-4-26T09:44:51Z
2021-04-26T07:46:45Z,42.805,6.029,13.2982,4.59986,2469.737,2021-4-26T09:47:54Z
2021-04-26T07:49:48Z,42.805,6.029,13.2982,4.59986,2469.737,2021-4-26T09:50:57Z
2021-04-26T07:52:51Z,42.805,6.029,13.2982,4.59988,2469.713,2021-4-26T09:54:00Z
2021-04-26T07:55:54Z,42.805,6.029,13.2983,4.59990,2469.69,2021-4-26T09:57:03Z
2021-04-26T07:58:57Z,42.805,6.029,13.2978,4.59987,2469.713,2021-4-26T10:00:07Z
2021-04-26T08:02:00Z,42.805,6.029,13.2977,4.59987,2469.713,2021-4-26T10:03:10Z
2021-04-26T08:05:03Z,42.805,6.029,13.2980,4.59987,2469.713,2021-4-26T10:06:13Z
2021-04-26T08:08:06Z,42.805,6.029,13.2981,4.59987,2469.69,2021-4-26T10:09:16Z
2021-04-26T08:11:10Z,42.805,6.029,13.2983,4.59987,2469.69,2021-4-26T10:12:19Z
2021-04-26T08:14:13Z,42.805,6.029,13.2983,4.59987,2469.713,2021-4-26T10:15:22Z
2021-04-26T08:17:16Z,42.805,6.029,13.2982,4.59987,2469.704,2021-4-26T10:18:25Z
2021-04-26T08:20:19Z,42.805,6.029,13.2979,4.59988,2469.667,2021-4-26T10:21:28Z
2021-04-26T08:23:22Z,42.805,6.029,13.2980,4.59988,2469.727,2021-4-26T10:24:32Z
2021-04-26T08:26:25Z,42.805,6.029,13.2983,4.59988,2469.704,2021-4-26T10:27:35Z
2021-04-26T08:29:28Z,42.805,6.029,13.2981,4.59988,2469.737,2021-4-26T10:30:38Z
2021-04-26T08:32:31Z,42.805,6.029,13.2985,4.59987,2469.713,2021-4-26T10:33:41Z
2021-04-26T08:35:35Z,42.805,6.029,13.2981,4.59986,2469.727,2021-4-26T10:36:44Z
2021-04-26T08:38:38Z,42.805,6.029,13.2982,4.59987,2469.713,2021-4-26T10:39:47Z
2021-04-26T08:41:41Z,42.805,6.029,13.2980,4.59987,2469.704,2021-4-26T10:42:50Z
2021-04-26T08:44:44Z,42.805,6.029,13.2978,4.59989,2469.69,2021-4-26T10:45:53Z
2021-04-26T08:47:47Z,42.805,6.029,13.2981,4.59987,2469.727,2021-4-26T10:48:57Z
2021-04-26T08:50:50Z,42.805,6.029,13.2979,4.59986,2469.69,2021-4-26T10:52:00Z
2021-04-26T08:53:53Z,42.805,6.029,13.2980,4.59988,2469.667,2021-4-26T10:55:03Z
2021-04-26T08:56:56Z,42.805,6.029,13.2979,4.59987,2469.69,2021-4-26T10:58:06Z
2021-04-26T09:00:00Z,42.805,6.029,13.2980,4.59986,2469.643,2021-4-26T11:01:09Z
2021-04-26T09:03:03Z,42.805,6.029,13.2982,4.59988,2469.68,2021-4-26T11:04:12Z
2021-04-26T09:06:06Z,42.805,6.029,13.2980,4.59986,2469.69,2021-4-26T11:07:15Z
2021-04-26T09:09:09Z,42.805,6.029,13.2980,4.59986,2469.68,2021-4-26T11:10:18Z
2021-04-26T09:12:12Z,42.805,6.029,13.2983,4.59987,2469.667,2021-4-26T11:13:22Z
2021-04-26T09:15:15Z,42.805,6.029,13.2980,4.59986,2469.667,2021-4-26T11:16:25Z
2021-04-26T09:18:18Z,42.805,6.029,13.2980,4.59987,2469.704,2021-4-26T11:19:28Z
2021-04-26T09:21:22Z,42.805,6.029,13.2983,4.59986,2469.68,2021-4-26T11:22:31Z
2021-04-26T09:24:25Z,42.805,6.029,13.2982,4.59988,2469.68,2021-4-26T11:25:34Z
2021-04-26T09:27:28Z,42.805,6.029,13.2979,4.59986,2469.667,2021-4-26T11:28:37Z
2021-04-26T09:30:31Z,42.805,6.029,13.2982,4.59987,2469.667,2021-4-26T11:31:40Z
2021-04-26T09:33:34Z,42.805,6.029,13.2981,4.59986,2469.643,2021-4-26T11:34:43Z
2021-04-26T09:36:37Z,42.805,6.029,13.2979,4.59987,2469.643,2021-4-26T11:37:47Z
2021-04-26T09:39:40Z,42.805,6.029,13.2985,4.59987,2469.667,2021-4-26T11:40:50Z
2021-04-26T09:42:43Z,42.805,6.029,13.2982,4.59987,2469.68,2021-4-26T11:43:53Z
2021-04-26T09:45:47Z,42.805,6.029,13.2984,4.59988,2469.62,2021-4-26T11:46:56Z
2021-04-26T09:48:50Z,42.805,6.029,13.2984,4.59986,2469.657,2021-4-26T11:49:59Z
2021-04-26T09:51:53Z,42.805,6.029,13.2980,4.59986,2469.62,2021-4-26T11:53:02Z
2021-04-26T09:54:56Z,42.805,6.029,13.2986,4.59989,2469.657,2021-4-26T11:56:05Z
2021-04-26T09:57:59Z,42.805,6.029,13.2981,4.59986,2469.657,2021-4-26T11:59:09Z
2021-04-26T10:01:02Z,42.805,6.029,13.2980,4.59990,2469.643,2021-4-26T12:02:12Z
2021-04-26T10:04:05Z,42.805,6.029,13.2980,4.59987,2469.597,2021-4-26T12:05:15Z
2021-04-26T10:07:08Z,42.805,6.029,13.2982,4.59986,2469.657,2021-4-26T12:08:18Z
2021-04-26T10:10:12Z,42.805,6.029,13.2982,4.59986,2469.657,2021-4-26T12:11:21Z
2021-04-26T10:13:15Z,42.805,6.029,13.2980,4.59986,2469.634,2021-4-26T12:14:24Z
2021-04-26T10:16:18Z,42.805,6.029,13.2982,4.59986,2469.634,2021-4-26T12:17:27Z
2021-04-26T10:19:21Z,42.805,6.029,13.2981,4.59986,2469.597,2021-4-26T12:20:30Z
2021-04-26T10:22:24Z,42.805,6.029,13.2977,4.59987,2469.597,2021-4-26T12:23:34Z
2021-04-26T10:25:27Z,42.805,6.029,13.2981,4.59986,2469.587,2021-4-26T12:26:37Z
2021-04-26T10:28:30Z,42.805,6.029,13.2982,4.59988,2469.597,2021-4-26T12:29:40Z
2021-04-26T10:31:33Z,42.805,6.029,13.2981,4.59986,2469.597,2021-4-26T12:32:43Z
2021-04-26T10:34:37Z,42.805,6.029,13.2983,4.59987,2469.62,2021-4-26T12:35:46Z
2021-04-26T10:37:40Z,42.805,6.029,13.2982,4.59986,2469.573,2021-4-26T12:38:49Z
2021-04-26T10:40:43Z,42.805,6.029,13.2983,4.59986,2469.597,2021-4-26T12:41:52Z
2021-04-26T10:43:46Z,42.805,6.029,13.2980,4.59986,2469.573,2021-4-26T12:44:55Z
2021-04-26T10:46:49Z,42.805,6.029,13.2982,4.59986,2469.573,2021-4-26T12:47:59Z
2021-04-26T10:49:52Z,42.805,6.029,13.2982,4.59986,2469.563,2021-4-26T12:51:02Z
2021-04-26T10:52:55Z,42.805,6.029,13.2981,4.59986,2469.573,2021-4-26T12:54:05Z
2021-04-26T10:55:58Z,42.805,6.029,13.2984,4.59986,2469.61,2021-4-26T12:57:08Z
2021-04-26T10:59:02Z,42.805,6.029,13.2983,4.59987,2469.587,2021-4-26T13:00:11Z
2021-04-26T11:02:05Z,42.805,6.029,13.2982,4.59987,2469.597,2021-4-26T13:03:14Z
2021-04-26T11:05:08Z,42.805,6.029,13.2982,4.59986,2469.587,2021-4-26T13:06:17Z
2021-04-26T11:08:11Z,42.805,6.029,13.2979,4.59986,2469.587,2021-4-26T13:09:20Z
2021-04-26T11:11:14Z,42.805,6.029,13.2982,4.59985,2469.55,2021-4-26T13:12:24Z
2021-04-26T11:14:17Z,42.805,6.029,13.2980,4.59987,2469.573,2021-4-26T13:15:27Z
2021-04-26T11:17:20Z,42.805,6.029,13.2981,4.59986,2469.587,2021-4-26T13:18:30Z
2021-04-26T11:20:23Z,42.805,6.029,13.2982,4.59987,2469.563,2021-4-26T13:21:33Z
2021-04-26T11:23:27Z,42.805,6.029,13.2979,4.59984,2469.55,2021-4-26T13:24:36Z
2021-04-26T11:26:30Z,42.805,6.029,13.2979,4.59985,2469.55,2021-4-26T13:27:39Z
2021-04-26T11:29:33Z,42.805,6.029,13.2979,4.59986,2469.55,2021-4-26T13:30:42Z
2021-04-26T11:32:36Z,42.805,6.029,13.2978,4.59986,2469.55,2021-4-26T13:33:46Z
2021-04-26T11:35:39Z,42.805,6.029,13.2980,4.59985,2469.526,2021-4-26T13:36:49Z
2021-04-26T11:38:42Z,42.805,6.029,13.2982,4.59986,2469.503,2021-4-26T13:39:52Z
2021-04-26T11:41:45Z,42.805,6.029,13.2980,4.59986,2469.503,2021-4-26T13:42:55Z
2021-04-26T11:44:49Z,42.805,6.029,13.2980,4.59985,2469.526,2021-4-26T13:45:58Z
2021-04-26T11:47:52Z,42.805,6.029,13.2982,4.59986,2469.503,2021-4-26T13:49:01Z
2021-04-26T11:50:55Z,42.805,6.029,13.2981,4.59986,2469.517,2021-4-26T13:52:04Z
2021-04-26T11:53:58Z,42.805,6.029,13.2979,4.59985,2469.48,2021-4-26T13:55:07Z
2021-04-26T11:57:01Z,42.805,6.029,13.2984,4.59986,2469.526,2021-4-26T13:58:11Z
2021-04-26T12:00:04Z,42.805,6.029,13.2979,4.59986,2469.503,2021-4-26T14:01:14Z
2021-04-26T12:03:07Z,42.805,6.029,13.2983,4.59986,2469.447,2021-4-26T14:04:17Z
2021-04-26T12:06:10Z,42.805,6.029,13.2979,4.59985,2469.47,2021-4-26T14:07:20Z
2021-04-26T12:09:14Z,42.805,6.029,13.2979,4.59987,2469.48,2021-4-26T14:10:23Z
2021-04-26T12:12:17Z,42.805,6.029,13.2980,4.59986,2469.48,2021-4-26T14:13:26Z
2021-04-26T12:15:20Z,42.805,6.029,13.2979,4.59986,2469.503,2021-4-26T14:16:29Z
2021-04-26T12:18:23Z,42.805,6.029,13.2979,4.59985,2469.48,2021-4-26T14:19:32Z
2021-04-26T12:21:26Z,42.805,6.029,13.2982,4.59986,2469.456,2021-4-26T14:22:36Z
2021-04-26T12:24:29Z,42.805,6.029,13.2977,4.59985,2469.517,2021-4-26T14:25:39Z
2021-04-26T12:27:32Z,42.805,6.029,13.2980,4.59985,2469.494,2021-4-26T14:28:42Z
2021-04-26T12:30:35Z,42.805,6.029,13.2982,4.59984,2469.503,2021-4-26T14:31:45Z
2021-04-26T12:33:39Z,42.805,6.029,13.2976,4.59986,2469.503,2021-4-26T14:34:48Z
2021-04-26T12:36:42Z,42.805,6.029,13.2983,4.59986,2469.456,2021-4-26T14:37:51Z
2021-04-26T12:39:45Z,42.805,6.029,13.2981,4.59986,2469.47,2021-4-26T14:40:54Z
2021-04-26T12:42:48Z,42.805,6.029,13.2979,4.59985,2469.48,2021-4-26T14:43:57Z
2021-04-26T12:45:51Z,42.805,6.029,13.2982,4.59985,2469.48,2021-4-26T14:47:01Z
2021-04-26T12:48:54Z,42.805,6.029,13.2981,4.59986,2469.433,2021-4-26T14:50:04Z
2021-04-26T12:51:57Z,42.805,6.029,13.2979,4.59985,2469.456,2021-4-26T14:53:07Z
2021-04-26T12:55:00Z,42.805,6.029,13.2982,4.59986,2469.47,2021-4-26T14:56:10Z
2021-04-26T12:58:04Z,42.805,6.029,13.2983,4.59985,2469.494,2021-4-26T14:59:13Z
2021-04-26T13:01:07Z,42.805,6.029,13.2982,4.59986,2469.503,2021-4-26T15:02:16Z
2021-04-26T13:04:10Z,42.805,6.029,13.2981,4.59986,2469.456,2021-4-26T15:05:19Z
2021-04-26T13:07:13Z,42.805,6.029,13.2980,4.59986,2469.494,2021-4-26T15:08:23Z
2021-04-26T13:10:16Z,42.805,6.029,13.2982,4.59984,2469.489,2021-4-26T15:11:26Z
2021-04-26T13:13:19Z,42.805,6.029,13.2982,4.59985,2469.466,2021-4-26T15:14:29Z
2021-04-26T13:16:22Z,42.805,6.029,13.2979,4.59986,2469.494,2021-4-26T15:17:32Z
2021-04-26T13:19:26Z,42.805,6.029,13.2982,4.59985,2469.47,2021-4-26T15:20:35Z
2021-04-26T13:22:29Z,42.805,6.029,13.2983,4.59986,2469.494,2021-4-26T15:23:38Z
2021-04-26T13:25:32Z,42.805,6.029,13.2983,4.59987,2469.517,2021-4-26T15:26:41Z
2021-04-26T13:28:35Z,42.805,6.029,13.2979,4.59985,2469.503,2021-4-26T15:29:44Z
2021-04-26T13:31:38Z,42.805,6.029,13.2980,4.59985,2469.456,2021-4-26T15:32:48Z
2021-04-26T13:34:41Z,42.805,6.029,13.2981,4.59986,2469.48,2021-4-26T15:35:51Z
2021-04-26T13:37:44Z,42.805,6.029,13.2977,4.59986,2469.517,2021-4-26T15:38:54Z
2021-04-26T13:40:47Z,42.805,6.029,13.2978,4.59985,2469.494,2021-4-26T15:41:57Z
2021-04-26T13:43:51Z,42.805,6.029,13.2982,4.59985,2469.433,2021-4-26T15:45:00Z
2021-04-26T13:46:54Z,42.805,6.029,13.2982,4.59985,2469.456,2021-4-26T15:48:03Z
2021-04-26T13:49:57Z,42.805,6.029,13.2981,4.59987,2469.494,2021-4-26T15:51:06Z
2021-04-26T13:53:00Z,42.805,6.029,13.2982,4.59987,2469.48,2021-4-26T15:54:09Z
2021-04-26T13:56:03Z,42.805,6.029,13.2982,4.59985,2469.494,2021-4-26T15:57:13Z
2021-04-26T13:59:06Z,42.805,6.029,13.2982,4.59986,2469.48,2021-4-26T16:00:16Z
2021-04-26T14:02:09Z,42.805,6.029,13.2982,4.59984,2469.48,2021-4-26T16:03:19Z
2021-04-26T14:05:12Z,42.805,6.029,13.2982,4.59984,2469.47,2021-4-26T16:06:22Z
2021-04-26T14:08:16Z,42.805,6.029,13.2983,4.59984,2469.503,2021-4-26T16:09:25Z
2021-04-26T14:11:19Z,42.805,6.029,13.2981,4.59986,2469.456,2021-4-26T16:12:28Z
2021-04-26T14:14:22Z,42.805,6.029,13.2978,4.59985,2469.47,2021-4-26T16:15:31Z
2021-04-26T14:17:25Z,42.805,6.029,13.2981,4.59986,2469.48,2021-4-26T16:18:34Z
2021-04-26T14:20:28Z,42.805,6.029,13.2979,4.59985,2469.494,2021-4-26T16:21:38Z
2021-04-26T14:23:31Z,42.805,6.029,13.2979,4.59985,2469.526,2021-4-26T16:24:41Z
2021-04-26T14:26:34Z,42.805,6.029,13.2982,4.59986,2469.54,2021-4-26T16:27:44Z
2021-04-26T14:29:37Z,42.805,6.029,13.2982,4.59985,2469.526,2021-4-26T16:30:47Z
2021-04-26T14:32:41Z,42.805,6.029,13.2979,4.59986,2469.503,2021-4-26T16:33:50Z
2021-04-26T14:35:44Z,42.805,6.029,13.2979,4.59986,2469.517,2021-4-26T16:36:53Z
2021-04-26T14:38:47Z,42.805,6.029,13.2978,4.59985,2469.503,2021-4-26T16:39:56Z
2021-04-26T14:41:50Z,42.805,6.029,13.2985,4.59985,2469.494,2021-4-26T16:42:59Z
2021-04-26T14:44:53Z,42.805,6.029,13.2982,4.59986,2469.55,2021-4-26T16:46:03Z
2021-04-26T14:47:56Z,42.805,6.029,13.2979,4.59985,2469.526,2021-4-26T16:49:06Z
2021-04-26T14:50:59Z,42.805,6.029,13.2979,4.59986,2469.517,2021-4-26T16:52:09Z
2021-04-26T14:54:03Z,42.805,6.029,13.2982,4.59987,2469.526,2021-4-26T16:55:12Z
2021-04-26T14:57:06Z,42.805,6.029,13.2983,4.59986,2469.55,2021-4-26T16:58:15Z
2021-04-26T15:00:09Z,42.805,6.029,13.2983,4.59986,2469.503,2021-4-26T17:01:18Z
2021-04-26T15:03:12Z,42.805,6.029,13.2979,4.59985,2469.526,2021-4-26T17:04:21Z
2021-04-26T15:06:15Z,42.805,6.029,13.2983,4.59987,2469.55,2021-4-26T17:07:25Z
2021-04-26T15:09:18Z,42.805,6.029,13.2976,4.59986,2469.55,2021-4-26T17:10:28Z
2021-04-26T15:12:21Z,42.805,6.029,13.2979,4.59985,2469.55,2021-4-26T17:13:31Z
2021-04-26T15:15:24Z,42.805,6.029,13.2982,4.59986,2469.55,2021-4-26T17:16:34Z